Location: *
(44.3925°N, 5.4708°E)
Time: 21:19:44
(UTC+00:00)

Okean 1-7 Rocket - Pass Details

Date: 18 September 2019
Orbit: 617 x 649 km, 82.5° (Epoch: 17 October)

Event Time Altitude Azimuth Distance (km) Brightness Sun altitude
Rises 19:36:09 0° 350° (N) 2,912 7.5 -20.3°
Reaches altitude 10° 19:38:23 10° 349° (N) 2,005 6.6 -20.6°
Maximum altitude 19:42:50 81° 263° (W) 642 3.6 -21.3°
Enters shadow 19:44:39 36° 181° (S) 1,009 4.4 -21.6°
